TimeCDT,TemperatureF,Dew PointF,Humidity,Sea Level PressureIn,VisibilityMPH,Wind Direction,Wind SpeedMPH,Gust SpeedMPH,PrecipitationIn,Events,Conditions,WindDirDegrees,DateUTC
12:53 AM,82.0,73.0,74,29.83,10.0,SW,3.5,-,N/A,,Clear,230,2013-08-31 05:53:00
1:53 AM,81.0,73.0,77,29.82,10.0,SW,4.6,-,N/A,,Clear,230,2013-08-31 06:53:00
2:53 AM,79.0,73.0,82,29.82,10.0,SW,4.6,-,N/A,,Clear,230,2013-08-31 07:53:00
3:53 AM,79.0,72.0,79,29.82,10.0,SSW,3.5,-,N/A,,Clear,210,2013-08-31 08:53:00
4:53 AM,79.0,72.0,79,29.82,10.0,SW,3.5,-,N/A,,Clear,230,2013-08-31 09:53:00
5:53 AM,79.0,72.0,79,29.81,10.0,SW,4.6,-,N/A,,Clear,230,2013-08-31 10:53:00
6:53 AM,78.1,71.1,79,29.82,10.0,Calm,Calm,-,N/A,,Clear,0,2013-08-31 11:53:00
7:53 AM,80.1,72.0,76,29.83,10.0,SW,4.6,-,N/A,,Clear,230,2013-08-31 12:53:00
8:53 AM,82.9,72.0,69,29.84,10.0,SW,4.6,-,N/A,,Clear,230,2013-08-31 13:53:00
9:53 AM,88.0,73.0,61,29.84,10.0,Variable,4.6,-,N/A,,Clear,0,2013-08-31 14:53:00
10:53 AM,91.9,70.0,48,29.83,10.0,WSW,4.6,-,N/A,,Clear,240,2013-08-31 15:53:00
11:53 AM,95.0,70.0,44,29.80,10.0,SSW,6.9,-,N/A,,Clear,200,2013-08-31 16:53:00
12:53 PM,96.1,66.9,38,29.78,10.0,WSW,6.9,-,N/A,,Clear,250,2013-08-31 17:53:00
1:53 PM,99.0,64.0,32,29.77,10.0,West,8.1,-,N/A,,Clear,260,2013-08-31 18:53:00
2:53 PM,99.0,64.9,33,29.74,10.0,West,9.2,-,N/A,,Clear,260,2013-08-31 19:53:00
3:53 PM,100.0,64.9,32,29.73,10.0,Variable,5.8,-,N/A,,Clear,0,2013-08-31 20:53:00
4:53 PM,97.0,66.0,36,29.72,10.0,West,10.4,-,N/A,,Scattered Clouds,270,2013-08-31 21:53:00
5:53 PM,97.0,66.9,37,29.70,10.0,WSW,5.8,16.1,N/A,,Partly Cloudy,240,2013-08-31 22:53:00
6:53 PM,95.0,66.9,40,29.70,10.0,WSW,8.1,-,N/A,,Clear,240,2013-08-31 23:53:00
7:53 PM,93.0,66.9,42,29.72,10.0,SSW,4.6,-,N/A,,Partly Cloudy,210,2013-09-01 00:53:00
8:31 PM,91.4,66.2,43,29.77,10.0,WNW,15.0,23.0,0.00,Rain-Thunderstorm,Light Thunderstorms and Rain,300,2013-09-01 01:31:00
8:38 PM,82.4,66.2,58,29.76,2.5,NNW,12.7,62.1,0.14,Rain-Thunderstorm,Light Thunderstorms and Rain,340,2013-09-01 01:38:00
8:46 PM,82.4,64.4,54,29.76,5.0,SSE,9.2,24.2,0.20,Rain-Thunderstorm,Light Thunderstorms and Rain,150,2013-09-01 01:46:00
8:53 PM,82.0,66.0,58,29.75,5.0,Calm,Calm,-,0.23,Rain-Thunderstorm,Light Thunderstorms and Rain,0,2013-09-01 01:53:00
9:20 PM,75.2,73.4,94,29.76,9.0,SW,5.8,-,0.01,Rain,Light Rain,220,2013-09-01 02:20:00
9:53 PM,79.0,73.0,82,29.75,10.0,SW,3.5,-,0.01,,Clear,220,2013-09-01 02:53:00
10:53 PM,79.0,75.0,88,29.77,9.0,ENE,4.6,-,N/A,,Mostly Cloudy,60,2013-09-01 03:53:00
11:53 PM,77.0,73.9,90,29.77,8.0,Calm,Calm,-,N/A,,Clear,0,2013-09-01 04:53:00